Regional Weather Roundup
Issued by NWS

Home | Current Version | Previous Version | Graphics & Text | Print | Product List | Glossary On
Versions: 1 2 3 4 5 6 7 8 9 10 11 12 13 14 15 16 17 18 19 20 21 22 23 24 25 26 27 28 29 30 31 32 33 34 35 36 37 38 39 40 41 42 43 44 45 46 47 48 49 50
366
ASUS45 KPSR 281510
RWRAZ

ARIZONA HOURLY REGIONAL WEATHER ROUNDUP
NATIONAL WEATHER SERVICE PHOENIX AZ
800 AM MST THU APR 28 2016

NOTE: FAIR INDICATES FEW OR NO CLOUDS BELOW 12,000 FEET WITH NO
SIGNIFICANT WEATHER AND/OR OBSTRUCTIONS TO VISIBILITY.

AZZ001>003-036-281600-
NORTHWEST ARIZONA

CITY           SKY/WX    TMP DP  RH WIND       PRES   REMARKS
BULLHEAD CITY  CLOUDY    57  48  72 N8        29.71R
KINGMAN        CLOUDY    46  42  86 N12       29.71R
$$

AZZ004>008-015-016-018-281600-
NORTH CENTRAL ARIZONA

CITY           SKY/WX    TMP DP  RH WIND       PRES   REMARKS
GRAND CANYON   CLOUDY    42  34  73 S13G22    29.71R
WILLIAMS       PTSUNNY   43  30  61 S17       29.78S
PRESCOTT       FAIR      48  33  56 S8        29.71S
FLAGSTAFF      PTSUNNY   39  30  70 SW14      29.73R WCI  31
PAYSON         CLOUDY    48  25  40 VRB7G14   29.77R
PAGE           FAIR      48  43  82 N9        29.68R
$$

AZZ009>014-017-281600-
NORTHEAST ARIZONA

CITY           SKY/WX    TMP DP  RH WIND       PRES   REMARKS
WINSLOW        FAIR      54  19  25 SE10      29.72S
SAINT JOHNS    FAIR      56  19  23 SW24G38   29.73F
WINDOW ROCK    FAIR      51  22  31 S10G24    29.80S
SHOW LOW       FAIR      48  21  34 S22G29    29.78S
$$

AZZ023-281600-
GREATER PHOENIX AREA

CITY           SKY/WX    TMP DP  RH WIND       PRES   REMARKS
PHOENIX        PTSUNNY   66  26  22 W8        29.68R
BUCKEYE        FAIR      63  32  31 SW9       29.71R
GLENDALE       MOSUNNY   64  32  29 S10G17    29.71R
LUKE AFB       FAIR      63  33  32 SW15      29.68R
DEER VALLEY    FAIR      62  29  28 SW14      29.69R
SCOTTSDALE     FAIR      63  28  26 SW3       29.71R
MESA-GATEWAY   PTSUNNY   64  28  25 SW14      29.72R
CHANDLER       MOSUNNY   64  28  25 SW10G18   29.71R
$$

AZZ027-028-281600-
SOUTHWEST MARICOPA COUNTY AND PINAL COUNTY

CITY           SKY/WX    TMP DP  RH WIND       PRES   REMARKS
CASA GRANDE    PTSUNNY   63  28  27 NW6       29.74R
GILA BEND      PTSUNNY   63  33  31 SW15      29.72R
$$

AZZ503-504-507>509-281600-
SOUTHEAST ARIZONA

CITY           SKY/WX    TMP DP  RH WIND       PRES   REMARKS
TUCSON         FAIR      68  21  16 S15       29.76F
DAVIS-MONTHAN  FAIR      67  23  18 S14       29.75S
RYAN FIELD     SUNNY     70  25  18 MISG      29.75S
NOGALES        FAIR      61  23  23 S13       29.83S
SIERRA VISTA   FAIR      61  19  20 S15       29.85R
DOUGLAS        FAIR      61  24  24 S16       29.85S
SAFFORD        FAIR      68  20  16 E7        29.73S
$$

AZZ020-021-025-026-031-281600-
SOUTHWEST ARIZONA

CITY           SKY/WX    TMP DP  RH WIND       PRES   REMARKS
YUMA           FAIR      61  35  37 W20G26    29.75R
$$

CAZ031-033-041-043-047-048-061-281600-
SOUTHERN CALIFORNIA

CITY           SKY/WX    TMP DP  RH WIND       PRES   REMARKS
DOWNTOWN L.A.  FAIR      58  48  69 E5        29.83R
L.A. AIRPORT   FAIR      58  49  72 VRB3      29.84R
SAN DIEGO      CLOUDY    60  45  57 W7        29.88R
BURBANK        FAIR      54  45  71 CALM      29.82R
ONTARIO        PTSUNNY   54  44  69 NE6       29.82R
RIVERSIDE      CLOUDY    56  43  61 CALM      29.83R
PALM SPRINGS   FAIR      61  40  45 CALM      29.74R
EL CENTRO NAS  FAIR      62  37  39 W36G43    29.77R
IMPERIAL       FAIR      63  38  39 W21G33    29.75R
BLYTHE         FAIR      64  36  35 W20       29.70R
NEEDLES        FAIR      59  49  69 NE6       29.68R
$$

NVZ020-UTZ003-281600-
SOUTHERN NEVADA-UTAH

CITY           SKY/WX    TMP DP  RH WIND       PRES   REMARKS
LAS VEGAS      PTSUNNY   55  48  77 S7        29.61R
SALT LAKE CITY PTSUNNY   47  37  68 SE3       29.70R
$$

NMZ009-TXZ055-281600-
NEW MEXICO-WEST TEXAS

CITY           SKY/WX    TMP DP  RH WIND       PRES   REMARKS
ALBUQUERQUE    CLOUDY    59  27  29 SE5       29.81S
EL PASO        FAIR      67  21  17 S9        29.83R
$$


........................KEY........................
SKY/WX - SKY CONDITION/WEATHER
TMP    - TEMPERATURE IN FAHRENHEIT
DP     - DEW POINT IN FAHRENHEIT
RH     - RELATIVE HUMIDITY IN PERCENT
WIND   - DIRECTION AND SPEED IN MILES PER HOUR (MPH)
VRB    - VARIABLE WIND DIRECTION
PRES   - MEAN SEA LEVEL PRESSURE IN INCHES OF MERCURY
         F - FALLING PRESSURE   R - RISING PRESSURE
         S - STEADY PRESSURE
VSB    - VISIBILITY IN MILES
HX     - HEAT INDEX IN FAHRENHEIT
WCI    - WIND CHILL INDEX IN FAHRENHEIT
TC     - TEMPERATURE IN CELSIUS WHICH IS ALSO KNOWN AS
         TEMPERATURE IN CENTIGRADE
AFB    - AIR FORCE BASE
         LUKE AFB IS LUKE AIR FORCE BASE
         DAVIS-MONTHAN IS DAVIS-MONTHAN AIR FORCE BASE
NAS    - NAVAL AIR STATION
         EL CENTRO NAS IS EL CENTRO NAVAL AIR STATION
N/A    - NOT AVAILABLE





USA.gov is the U.S. government's official web portal to all federal, state and local government web resources and services.